Temperature
6 6 6 6 6 6 6 6 5 5 5 6 5 5 5 5 5 5 5 5 4 4 4 4 4 4 4 4 4 3 3 3 3 3 3 3 3 2
6 6 5 5 5 5 5 5 5 5 5 5 5 5 5 5 4 4 4 4 4 4 4 4 4 3 3 3 3 3 3 3 3 3 2 2 2 2
5 5 5 5 5 5 5 5 4 4 4 5 4 4 4 4 4 4 4 4 4 4 3 3 3 3 3 3 2 2 2 2 2 2 2 2 2 1
5 5 5 5 4 4 4 4 4 4 4 4 4 4 4 4 4 4 3 3 3 3 3 3 3 2 2 2 2 2 2 2 1 1 1 1 1 1
4 4 4 4 4 4 4 4 4 4 4 3 4 3 3 3 3 3 3 3 3 3 2 2 2 2 2 2 2 1 1 1 1 1 1 1 1 1
4 4 4 4 4 4 4 3 3 3 3 3 3 3 3 3 2 2 3 3 2 2 2 2 2 2 1 1 1 1 1 1 1 1 0 0 0 0
3 3 3 3 3 3 3 3 3 3 2 2 2 2 2 2 2 2 2 2 2 2 1 2 1 1 1 1 1 1 1 1 0 0 -0 -0 -0 -0
3 3 3 3 3 3 3 3 3 2 2 2 2 2 2 2 2 1 1 1 1 1 1 1 1 1 1 1 1 0 0 0 -0 -0 -1 -1 -1 -1
2 2 2 2 2 2 2 2 2 2 2 2 2 2 2 1 1 1 1 1 0 0 0 1 1 1 1 0 0 -0 -0 -1 -1 -1 -1 -1 -1 -1
2 2 2 2 2 2 2 2 2 2 2 2 1 1 1 1 1 0 0 -0 0 -0 -0 -0 0 0 0 0 -0 -0 -1 -1 -1 -1 -1 -1 -1 -2
1 1 1 1 2 1 1 1 1 1 1 1 1 1 1 0 0 0 -0 -0 -0 -0 -1 -1 -0 -0 0 0 -0 -1 -1 -1 -1 -1 -1 -2 -2 -2
1 1 1 1 1 1 1 1 1 1 1 1 1 1 0 0 -0 -0 -1 -1 -1 -1 -1 -1 -1 -1 -1 -0 -1 -1 -1 -1 -1 -2 -2 -2 -2 -2
0 0 0 0 0 1 1 1 1 1 1 0 0 0 -0 -0 -0 -1 -1 -1 -1 -1 -1 -2 -2 -2 -2 -2 -1 -1 -1 -2 -2 -2 -2 -2 -2 -2
-0 -0 -0 -0 0 0 0 0 -0 -0 -0 -0 -0 -1 -1 -1 -1 -1 -1 -1 -2 -2 -2 -2 -2 -2 -3 -3 -2 -2 -2 -2 -2 -2 -2 -2 -2 -3
-1 -1 -1 -0 -0 -0 -1 -1 -1 -1 -1 -1 -1 -1 -1 -1 -1 -2 -2 -2 -2 -2 -2 -3 -3 -3 -3 -3 -3 -2 -2 -2 -3 -3 -3 -3 -3 -3
-1 -1 -1 -1 -1 -1 -1 -1 -1 -1 -1 -1 -2 -1 -2 -2 -2 -2 -2 -2 -2 -2 -3 -3 -3 -3 -3 -3 -3 -3 -3 -3 -3 -3 -3 -3 -3 -3
-2 -2 -2 -2 -2 -2 -2 -2 -2 -2 -2 -2 -2 -2 -2 -2 -2 -2 -3 -3 -3 -3 -3 -3 -3 -4 -4 -4 -3 -3 -4 -4 -4 -4 -4 -3 -3 -3
-2 -2 -2 -2 -2 -2 -2 -2 -2 -2 -2 -3 -3 -3 -3 -3 -3 -3 -3 -3 -3 -4 -4 -4 -4 -4 -4 -4 -4 -4 -4 -4 -4 -4 -4 -4 -4 -3
-3 -3 -3 -3 -3 -3 -3 -3 -3 -3 -3 -3 -3 -3 -3 -3 -4 -4 -4 -4 -4 -4 -4 -4 -5 -5 -5 -5 -4 -4 -4 -4 -4 -4 -4 -5 -4 -4
-4 -4 -4 -4 -4 -4 -4 -4 -4 -4 -4 -4 -4 -4 -4 -4 -4 -4 -5 -5 -5 -5 -5 -5 -5 -5 -5 -5 -5 -5 -5 -5 -5 -5 -5 -5 -5 -4
-4 -4 -4 -4 -4 -4 -4 -4 -4 -4 -4 -5 -5 -5 -5 -5 -5 -5 -5 -5 -5 -5 -5 -5 -5 -6 -6 -6 -6 -5 -5 -5 -5 -6 -5 -5 -5 -5
-5 -5 -5 -5 -5 -5 -5 -5 -5 -5 -5 -5 -5 -5 -5 -5 -5 -5 -5 -6 -6 -6 -6 -6 -6 -6 -6 -6 -6 -6 -6 -5 -5 -5 -6 -6 -6 -6
-5 -5 -5 -5 -5 -5 -5 -5 -5 -5 -5 -5 -5 -5 -6 -6 -6 -6 -6 -6 -6 -6 -6 -6 -6 -6 -6 -6 -6 -6 -6 -6 -6 -6 -5 -6 -6 -6
Wind_Speed
6 5 4 3 3 3 3 4 4 3 4 3 2 1 2 3 4 3 4 4 5 6 6 7 7 7 7 8 8 7 7 7 7 8 8 9 9 10
5 6 5 3 3 3 3 3 3 4 3 3 3 1 2 2 3 3 4 4 5 6 7 7 8 8 8 8 8 7 7 8 8 8 9 9 10 11
5 6 6 5 4 3 3 3 3 3 4 3 1 1 2 2 2 3 3 3 5 6 7 8 8 8 8 8 7 7 8 9 8 9 9 10 11 11
7 6 6 5 5 4 4 4 4 4 4 4 2 2 2 2 2 2 2 3 5 6 7 8 8 8 8 8 8 8 9 9 9 9 10 11 11 12
7 7 7 7 6 5 5 5 4 3 3 3 3 2 1 1 1 1 2 3 4 6 7 7 7 8 8 8 8 9 9 9 9 9 10 11 11 12
6 6 7 7 7 7 6 6 5 4 3 3 3 2 1 1 1 1 2 2 3 4 5 6 7 8 9 9 9 9 9 9 10 10 11 11 12 12
5 5 6 7 8 7 6 6 6 5 4 4 3 2 2 2 2 2 2 2 3 2 2 4 5 6 7 9 9 10 10 10 11 11 11 12 12 13
5 5 5 6 7 8 8 8 8 7 6 5 4 4 4 3 2 2 2 2 3 2 2 4 3 4 6 7 9 10 11 11 11 11 12 12 13 13
5 5 4 4 6 5 6 6 6 8 8 6 6 6 5 5 4 3 3 3 4 3 2 4 3 4 6 7 9 10 10 10 11 12 12 12 13 13
4 5 5 5 5 6 5 4 4 4 5 4 5 6 5 5 5 5 4 3 2 2 2 3 3 3 5 7 8 8 9 10 11 11 12 12 13 13
4 4 5 5 7 7 6 5 4 3 3 5 5 5 5 6 5 3 2 2 3 3 2 2 3 3 3 4 7 8 9 10 10 11 12 12 12 12
3 3 5 6 7 7 6 6 5 4 3 2 2 2 2 3 5 4 4 3 2 3 2 2 2 1 3 3 4 6 7 9 10 11 11 11 11 9
3 3 3 6 7 7 6 5 6 4 4 3 2 2 1 1 2 3 3 4 4 4 2 2 2 1 2 3 3 4 5 5 7 8 9 10 12 10
3 3 3 5 6 6 5 5 6 4 3 3 3 2 2 2 2 2 3 4 4 4 5 4 2 3 3 4 4 3 4 6 5 5 7 10 11 12
3 4 4 5 4 3 4 5 4 3 3 3 3 3 3 2 1 1 1 0 1 2 3 5 4 3 3 4 4 4 4 4 4 4 6 7 7 8
1 3 3 3 2 3 3 2 2 2 3 3 2 2 2 2 2 2 1 1 1 2 2 3 5 4 4 5 5 6 5 4 4 5 6 7 8 8
2 1 1 2 1 1 1 1 1 1 1 1 2 2 2 2 1 1 1 1 1 2 2 2 3 4 5 5 5 6 5 5 5 5 5 7 7 8
2 2 2 2 2 2 2 1 1 1 2 2 2 2 2 2 1 1 1 1 2 2 3 2 2 2 2 3 7 6 5 5 5 5 4 5 7 7
2 2 2 2 2 2 2 1 1 1 1 2 2 2 2 2 2 1 1 1 2 2 2 2 2 1 3 5 4 5 4 4 4 5 4 5 7 8
1 1 1 1 1 1 1 1 1 1 1 1 1 2 2 2 2 2 2 2 2 2 2 2 2 2 3 4 4 4 6 4 3 5 5 5 5 9
1 1 1 1 1 1 1 1 1 1 1 1 1 1 2 2 2 2 2 3 2 2 3 3 3 4 2 1 3 3 4 6 6 4 4 4 5 4
0 0 0 1 1 1 1 2 1 1 2 2 2 2 2 2 2 2 2 2 2 2 2 2 2 2 1 2 4 5 5 6 8 8 7 6 3 3
1 1 1 1 1 1 1 2 2 2 2 2 2 2 2 2 2 2 2 2 2 2 2 2 2 2 2 3 4 4 5 6 5 5 5 8 9 11
Wind_Direction
192 188 188 189 182 172 161 167 171 209 245 245 239 245 237 233 236 236 253 261 279 288 290 296 299 295 296 294 292 292 301 301 301 303 304 305 305 306
191 187 193 188 183 176 171 174 175 188 227 236 227 232 222 229 238 242 252 266 280 286 289 291 291 288 289 295 289 287 292 295 295 297 299 300 301 302
192 192 198 187 187 187 179 176 181 177 216 250 225 222 215 221 252 249 258 271 278 285 286 286 282 282 287 290 286 285 289 290 291 294 295 296 297 298
198 194 201 194 194 191 191 195 195 190 197 227 233 212 227 231 232 252 265 264 274 282 284 283 275 276 282 287 287 284 287 288 289 291 291 292 294 296
199 198 201 195 201 198 195 199 199 195 191 198 219 220 235 240 248 284 284 281 285 283 284 282 273 276 278 283 283 281 282 284 284 286 289 291 293 294
201 201 200 201 204 199 199 198 191 188 182 185 198 215 233 238 208 252 286 289 294 294 286 286 281 282 282 284 283 281 278 279 283 286 288 290 291 291
202 205 206 204 204 203 202 195 187 189 187 192 200 208 221 225 232 228 260 289 286 271 276 287 282 280 283 284 283 283 280 280 283 284 287 290 291 290
204 208 209 206 207 207 207 200 191 192 195 199 207 213 224 220 220 227 242 280 278 263 263 280 263 268 275 277 279 283 281 281 282 285 289 290 290 290
203 204 207 211 207 203 206 207 210 211 206 202 204 215 214 209 198 215 229 242 254 260 261 273 258 259 270 275 279 282 281 281 284 289 291 291 291 290
201 200 202 209 206 190 183 193 210 217 213 210 211 217 216 205 199 207 218 235 266 271 236 259 269 268 283 276 274 275 282 287 291 292 293 293 293 292
208 201 201 206 207 193 184 190 200 213 211 208 214 215 214 212 195 165 182 225 264 259 219 234 274 294 284 267 266 272 283 289 293 295 297 297 296 295
205 206 208 210 208 201 195 194 204 211 188 182 187 206 207 209 202 195 197 215 246 249 212 216 256 303 297 270 265 279 285 290 297 300 299 297 297 298
205 212 211 211 212 212 209 205 208 193 180 184 193 197 196 203 203 205 208 209 222 238 212 189 231 248 253 289 296 281 277 287 298 297 299 302 301 298
210 216 212 209 215 214 213 205 195 181 177 184 195 207 215 227 224 220 222 227 229 237 225 209 220 229 250 279 284 294 291 285 283 287 295 304 303 300
205 205 210 206 201 202 204 198 190 186 184 198 211 220 220 215 198 201 208 196 300 276 232 232 228 235 237 252 267 282 297 289 276 281 293 294 292 296
191 183 183 184 183 180 183 186 182 188 190 204 214 213 199 192 196 199 211 218 278 307 306 262 240 226 247 256 257 271 274 274 285 293 294 290 291 286
162 151 150 156 164 155 144 141 145 157 177 187 189 197 200 193 203 213 208 202 216 254 289 310 304 265 249 251 260 260 269 272 275 291 299 299 292 287
148 157 170 173 175 177 175 169 171 186 188 181 193 199 206 203 203 210 205 213 238 254 269 286 308 326 321 277 239 249 265 271 282 290 285 291 296 297
123 141 156 166 169 165 167 169 185 195 182 179 193 203 205 199 197 210 222 238 253 261 271 277 274 273 300 302 283 234 250 281 292 294 283 276 284 292
120 148 158 158 154 158 160 162 162 159 170 181 188 195 196 195 203 218 225 232 250 268 280 281 261 248 246 267 278 288 274 265 276 288 293 293 284 289
105 147 166 187 200 197 190 181 180 185 189 187 195 199 201 202 210 218 227 244 260 265 272 280 277 288 277 283 290 289 292 288 281 279 287 296 299 302
59 201 231 223 216 207 193 183 189 202 201 202 208 211 212 211 212 215 222 234 256 268 280 293 305 313 289 266 283 288 300 312 314 304 287 270 269 281
310 288 269 253 237 225 204 194 202 216 215 211 213 216 209 219 222 219 227 235 250 266 285 297 304 301 282 269 279 288 296 305 312 318 307 303 294 287
Height
1521 1523 1525 1527 1529 1530 1532 1534 1536 1535 1535 1536 1538 1538 1539 1539 1539 1540 1540 1539 1539 1539 1539 1538 1538 1537 1537 1536 1535 1535 1534 1533 1532 1531 1530 1529 1528 1528
1516 1518 1520 1522 1524 1526 1527 1529 1530 1532 1531 1532 1533 1534 1535 1535 1535 1536 1536 1536 1535 1535 1535 1534 1533 1533 1532 1532 1531 1530 1529 1529 1528 1527 1526 1525 1524 1523
1511 1513 1515 1517 1519 1521 1523 1524 1526 1527 1527 1528 1530 1530 1531 1531 1531 1531 1532 1531 1531 1531 1530 1530 1529 1528 1528 1527 1526 1525 1524 1524 1523 1522 1521 1520 1519 1518
1507 1509 1510 1513 1514 1516 1518 1519 1521 1522 1523 1523 1524 1526 1526 1527 1527 1527 1527 1527 1526 1526 1526 1525 1524 1524 1523 1522 1521 1520 1519 1519 1518 1517 1516 1515 1514 1513
1502 1504 1505 1507 1509 1511 1512 1514 1516 1517 1518 1519 1519 1521 1522 1522 1522 1522 1522 1522 1521 1521 1520 1520 1519 1519 1518 1517 1516 1515 1514 1513 1513 1512 1511 1510 1509 1508
1497 1499 1500 1502 1504 1505 1507 1509 1511 1512 1513 1514 1515 1516 1517 1517 1517 1517 1516 1517 1516 1516 1515 1515 1514 1514 1513 1512 1512 1510 1509 1508 1508 1507 1506 1505 1503 1502
1492 1494 1495 1497 1499 1501 1502 1503 1505 1507 1508 1509 1510 1511 1511 1512 1513 1513 1512 1512 1511 1511 1510 1510 1509 1508 1508 1507 1506 1505 1504 1503 1502 1501 1500 1499 1498 1497
1486 1488 1490 1492 1494 1496 1497 1499 1500 1502 1503 1504 1505 1506 1506 1508 1509 1509 1508 1508 1507 1507 1506 1505 1505 1503 1503 1503 1501 1500 1499 1498 1497 1496 1495 1494 1492 1491
1482 1484 1485 1487 1489 1491 1492 1494 1495 1497 1499 1500 1500 1501 1502 1503 1504 1505 1504 1504 1503 1502 1501 1499 1499 1498 1498 1497 1497 1496 1494 1493 1492 1491 1489 1488 1486 1485
1477 1479 1481 1482 1484 1486 1487 1489 1490 1492 1493 1495 1496 1497 1498 1499 1500 1500 1500 1500 1498 1498 1497 1495 1493 1493 1492 1492 1491 1490 1489 1488 1487 1485 1484 1482 1481 1479
1473 1475 1476 1478 1479 1481 1483 1484 1485 1487 1489 1490 1491 1492 1493 1494 1495 1495 1495 1494 1493 1492 1492 1491 1489 1487 1486 1486 1486 1485 1484 1483 1481 1480 1479 1477 1476 1474
1468 1470 1472 1473 1475 1476 1478 1479 1480 1481 1484 1485 1486 1487 1488 1489 1489 1490 1490 1490 1488 1487 1487 1486 1485 1484 1481 1480 1481 1480 1479 1478 1476 1475 1473 1472 1470 1468
1464 1465 1467 1469 1470 1472 1473 1474 1475 1477 1479 1480 1481 1482 1483 1484 1484 1484 1485 1485 1484 1483 1483 1482 1481 1480 1479 1476 1475 1475 1474 1472 1471 1469 1468 1467 1465 1463
1459 1461 1462 1464 1466 1467 1468 1470 1471 1473 1474 1475 1476 1477 1478 1478 1479 1479 1480 1480 1479 1479 1479 1478 1477 1476 1475 1472 1471 1470 1469 1467 1466 1464 1462 1461 1460 1458
1455 1456 1458 1460 1462 1463 1464 1465 1467 1468 1469 1470 1470 1471 1473 1473 1474 1474 1474 1474 1474 1474 1474 1473 1473 1472 1471 1469 1467 1465 1464 1462 1461 1459 1457 1456 1454 1452
1451 1452 1454 1455 1457 1458 1459 1460 1462 1463 1464 1465 1466 1467 1468 1468 1469 1469 1469 1469 1469 1469 1469 1469 1468 1467 1466 1465 1463 1461 1460 1458 1456 1455 1453 1451 1449 1447
1447 1449 1450 1451 1452 1453 1454 1456 1457 1458 1459 1460 1461 1462 1462 1463 1463 1464 1464 1464 1464 1463 1463 1464 1464 1463 1462 1460 1458 1457 1456 1454 1452 1450 1448 1445 1444 1443
1444 1445 1446 1447 1448 1449 1450 1451 1452 1454 1455 1455 1456 1457 1457 1458 1459 1459 1460 1460 1459 1459 1459 1459 1459 1457 1456 1455 1455 1453 1451 1449 1448 1446 1444 1441 1438 1438
1441 1442 1443 1444 1445 1446 1447 1448 1449 1450 1451 1451 1452 1453 1453 1454 1454 1455 1455 1456 1456 1456 1456 1456 1455 1453 1452 1450 1449 1450 1448 1445 1444 1442 1440 1437 1434 1432
1439 1439 1440 1441 1442 1443 1444 1445 1446 1446 1447 1448 1448 1449 1449 1450 1451 1451 1451 1452 1452 1452 1452 1452 1451 1450 1449 1448 1446 1444 1444 1442 1440 1437 1435 1433 1431 1429
1437 1438 1438 1439 1440 1441 1442 1442 1443 1444 1444 1445 1445 1445 1446 1447 1447 1448 1448 1448 1449 1448 1448 1448 1448 1448 1446 1445 1443 1440 1440 1439 1437 1434 1431 1429 1425 1423
1435 1436 1437 1438 1438 1439 1439 1440 1440 1441 1441 1442 1442 1443 1443 1444 1444 1445 1445 1445 1445 1445 1445 1445 1444 1444 1443 1441 1439 1437 1436 1435 1434 1432 1430 1427 1424 1419
1434 1434 1435 1436 1436 1437 1437 1437 1438 1438 1439 1439 1439 1440 1440 1440 1441 1441 1442 1442 1442 1442 1442 1441 1441 1440 1439 1438 1436 1434 1432 1431 1429 1427 1426 1425 1422 1419